Location: Praha
(50.0830°N, 14.4670°E)
Time: 03:55:17
(UTC+02:00)

ISS - Pass Details

Date: 16 May 2022
Orbit: 414 x 421 km, 51.6° (Epoch: 22 May)

Event Time Altitude Azimuth Distance (km) Brightness Sun altitude
Rises 22:30:25 0° 248° (WSW) 2,353 0.2 -13.3°
Reaches altitude 10° 22:32:31 10° 247° (WSW) 1,491 -0.8 -13.5°
Maximum altitude 22:35:51 78° 162° (SSE) 429 -3.9 -13.8°
Drops below altitude 10° 22:39:12 10° 75° (ENE) 1,493 -1.2 -14.1°
Sets 22:41:18 0° 74° (ENE) 2,356 -0.1 -14.3°
